SCP
0 0 0 0 0 0 0 0 0 0 0 0 0 0 1 1 1 1 1 1 1 1 1 1 1 1 2 2 2 2 2 2 2 1 1 1 1 1 1 0 0 0 0 0
0 0 0 0 0 0 0 0 0 0 0 0 0 0 1 1 1 1 1 1 1 1 1 1 1 1 1 2 2 2 2 2 2 1 1 1 1 1 1 0 0 0 0 0
0 0 0 0 0 0 0 0 0 0 0 0 0 0 1 1 1 1 0 1 1 1 1 1 1 1 1 1 2 2 2 2 1 1 1 1 1 1 1 0 0 0 0 0
0 0 0 0 0 0 0 0 0 0 0 0 0 0 1 1 1 1 0 0 0 1 1 1 1 1 1 1 1 1 1 1 1 1 1 1 0 0 0 0 0 0 0 0
0 0 0 0 0 0 0 0 0 0 0 0 0 0 0 1 1 1 0 0 0 0 0 1 1 1 1 1 1 1 1 1 1 1 1 1 0 0 0 0 0 0 0 0
0 0 0 0 0 0 0 0 0 0 0 0 0 0 0 0 0 0 0 0 0 0 0 1 1 1 1 1 1 1 1 1 1 1 1 0 0 0 0 0 0 0 0 0
0 0 0 0 0 0 0 0 0 0 0 0 0 0 0 0 0 0 0 0 0 0 0 0 1 1 1 1 1 1 1 1 1 1 1 1 1 0 0 0 0 0 0 0
0 0 0 0 0 0 0 0 0 0 0 0 0 0 0 0 0 0 0 0 0 0 0 0 0 1 1 1 1 1 1 1 1 1 1 1 1 0 0 0 0 0 0 0
0 0 0 0 0 0 0 0 0 0 0 0 0 0 0 0 0 0 0 0 0 0 0 0 0 0 0 1 1 1 1 1 1 1 1 1 0 0 0 0 0 0 0 0
0 0 0 0 0 0 0 0 0 0 0 0 0 0 0 0 0 0 0 0 0 0 0 0 0 0 0 0 1 1 1 1 1 1 1 1 0 0 0 0 0 0 0 0
0 0 0 0 0 0 0 0 0 0 0 0 0 0 0 0 0 0 0 0 0 0 0 0 0 0 0 0 1 1 1 1 1 1 1 1 0 0 0 0 0 0 0 0
0 0 0 0 0 0 0 0 0 0 0 0 0 0 0 0 0 0 0 0 0 0 0 0 0 0 0 1 1 1 1 1 1 1 1 1 1 1 1 1 1 1 1 1
0 0 0 0 0 0 0 0 0 0 0 0 0 0 0 0 0 0 0 0 0 0 0 0 0 1 1 1 1 1 1 1 1 1 1 1 1 1 1 1 1 1 1 1
0 0 0 0 0 0 0 0 0 0 0 0 0 0 0 0 0 0 0 0 0 0 1 1 1 1 1 1 1 1 1 1 1 1 1 1 1 1 1 1 1 1 1 1
0 0 0 0 0 0 0 0 0 0 0 0 0 0 0 0 0 0 0 0 1 1 1 1 1 1 1 1 1 1 1 1 1 1 1 1 1 1 1 1 1 1 1 1
0 0 0 0 0 0 0 0 0 0 0 0 0 0 0 1 1 1 1 1 1 1 1 1 1 1 2 2 2 2 2 2 2 2 2 2 2 2 2 2 2 2 1 1
1 1 0 0 0 0 0 0 0 0 0 0 0 1 1 1 1 1 1 1 1 1 1 1 1 2 2 2 2 2 2 2 2 2 2 2 2 2 2 2 2 2 2 2
1 1 1 0 0 0 0 0 0 0 0 0 1 1 1 1 1 1 1 1 1 1 1 1 2 2 2 2 2 2 2 3 3 3 3 3 3 2 2 2 2 2 2 2
0 1 1 0 0 0 0 0 0 0 0 1 1 1 1 1 1 1 1 1 1 1 1 1 1 2 2 2 2 3 3 3 3 3 3 3 3 3 2 2 2 2 2 2
0 0 0 0 0 0 0 0 0 0 1 1 1 1 1 1 1 1 1 1 1 1 1 1 1 2 2 2 3 3 3 3 3 3 3 3 3 3 2 2 2 2 2 2
0 0 0 0 0 0 0 0 0 1 1 1 1 1 1 1 1 1 1 1 1 1 1 1 2 2 2 3 3 3 3 3 3 3 3 3 3 2 2 2 2 2 2 2
0 0 0 0 0 0 0 1 1 1 1 1 1 1 1 1 1 1 1 1 1 1 1 1 2 2 2 2 3 3 3 2 2 2 2 2 2 2 2 2 2 1 1 1
0 0 0 0 1 1 1 1 1 1 1 1 1 1 1 1 1 1 1 1 1 1 1 1 1 2 2 2 2 2 2 2 1 1 1 1 1 1 1 1 1 1 1 1
0 0 0 0 1 1 1 1 1 1 1 1 1 1 1 1 1 1 1 1 1 1 1 1 1 1 1 1 1 1 1 1 1 1 1 1 1 1 1 1 1 1 0 0
0 0 0 0 0 0 1 1 1 1 1 1 1 1 1 1 1 1 1 1 1 1 1 1 1 1 1 1 1 1 1 1 1 1 1 1 0 0 0 0 0 0 0 0
0 0 0 0 0 0 0 0 0 1 1 1 1 1 1 1 1 1 0 0 0 0 1 1 1 1 1 1 1 1 1 1 1 1 1 0 0 0 0 0 0 0 0 0
Wind_Speed
15 14 14 13 12 11 12 11 9 6 3 5 7 5 8 9 8 8 7 7 7 6 7 7 8 9 10 10 10 9 9 8 6 5 4 4 4 3 3 4 5 4 3 3
15 17 17 15 12 12 12 12 11 7 6 7 8 7 6 9 9 8 8 9 8 8 8 9 9 10 11 11 10 10 9 9 7 5 4 3 4 3 4 4 5 4 4 3
19 16 14 14 12 12 12 11 10 10 10 9 8 8 6 9 8 8 9 10 10 10 10 10 10 10 11 11 11 10 10 9 8 8 5 4 3 2 4 5 4 4 4 3
19 18 15 13 13 12 11 9 11 12 12 8 5 6 4 9 9 9 9 10 10 11 12 12 12 11 11 11 11 10 10 9 7 7 6 7 6 5 5 5 4 4 4 3
18 18 16 14 13 12 11 10 12 13 12 8 6 7 4 9 10 11 11 10 10 11 12 12 13 12 12 12 11 11 10 9 8 7 7 6 5 5 5 5 6 5 4 3
20 17 16 15 13 12 10 10 11 9 6 6 10 9 3 6 9 11 11 11 11 11 12 12 12 11 11 12 11 12 11 9 8 7 6 5 5 5 7 6 6 4 4 4
21 20 16 14 14 12 9 8 6 5 1 5 10 6 2 4 6 9 12 12 12 12 12 12 12 12 12 13 12 12 12 10 9 8 7 6 5 5 6 6 6 5 5 4
19 17 15 13 14 12 10 10 8 7 5 6 5 3 2 3 6 9 12 13 12 13 12 12 13 13 12 13 12 12 12 10 9 8 6 5 5 4 5 5 4 4 2 5
17 14 12 12 14 15 13 11 10 9 11 9 1 1 2 3 6 8 11 13 13 13 13 14 14 14 13 13 12 13 11 10 9 8 7 6 6 5 4 5 3 3 3 5
20 14 12 11 11 14 14 10 7 7 7 7 2 1 1 4 5 9 11 13 13 13 14 14 14 14 13 13 12 12 12 10 9 9 9 8 7 5 5 5 5 3 4 4
19 17 13 11 11 13 11 10 8 7 6 6 5 1 5 6 4 7 10 13 13 14 14 14 13 13 13 13 13 12 12 11 9 9 8 7 7 7 6 5 5 5 4 5
15 14 13 12 11 12 10 10 9 7 8 9 7 0 2 2 2 6 8 11 12 13 14 14 14 13 13 13 14 13 12 12 11 10 9 8 8 7 7 7 6 6 6 5
10 10 13 12 10 7 7 9 9 10 9 9 8 1 0 1 1 3 7 9 11 11 13 13 13 12 12 12 12 13 13 13 13 11 10 9 9 8 7 7 7 7 7 6
7 9 12 13 6 3 5 13 14 10 9 9 7 2 2 2 2 3 5 8 9 11 11 12 11 11 10 10 10 12 13 13 13 12 11 10 10 9 8 7 7 7 7 7
8 12 13 12 6 7 8 11 14 13 13 10 5 3 3 4 4 4 5 6 7 8 10 10 10 10 10 10 9 10 11 11 11 12 11 11 10 9 8 8 8 8 8 9
6 8 10 12 10 9 9 11 13 15 15 12 7 4 5 4 5 5 4 5 4 6 8 8 8 9 9 9 9 9 9 9 9 10 11 10 10 9 9 8 8 8 8 7
5 7 9 10 9 9 11 11 13 12 10 7 4 2 5 5 7 7 6 4 3 4 4 5 6 7 8 9 8 8 8 8 9 8 8 9 9 9 9 9 9 8 7 7
6 6 6 8 8 12 7 6 7 7 5 1 2 3 4 8 8 7 5 4 2 2 3 2 2 4 6 7 9 8 8 8 8 8 7 7 8 8 8 8 8 8 7 6
8 8 7 6 9 9 6 4 4 2 1 2 3 5 6 7 8 8 6 5 4 3 3 3 2 1 2 4 6 7 8 7 7 7 7 7 7 7 7 7 6 5 5 5
12 9 8 8 8 6 2 3 4 4 1 4 5 5 5 4 4 6 7 7 6 5 4 4 3 3 4 3 3 4 5 5 4 4 3 4 4 4 5 5 4 4 3 4
9 9 11 10 7 2 3 3 3 5 2 3 5 6 6 7 7 6 8 8 7 7 7 7 7 7 6 6 6 6 5 4 3 3 3 2 3 3 3 3 3 2 3 4
4 5 6 6 6 2 4 2 2 3 5 6 6 8 10 10 10 10 10 9 9 8 9 9 8 9 8 8 8 8 7 5 5 6 5 4 4 2 1 2 2 1 2 3
4 3 2 2 1 4 5 5 3 5 7 6 5 7 9 10 11 12 11 11 11 10 10 9 10 10 9 9 9 8 7 6 6 6 6 5 4 2 2 1 2 2 2 2
1 2 1 3 4 4 5 5 5 7 7 6 7 9 9 11 12 12 11 10 10 10 10 10 10 10 10 9 9 8 7 6 6 5 4 3 3 2 1 1 0 1 1 2
3 3 2 3 2 3 5 5 6 7 8 8 9 10 12 13 13 12 11 10 10 10 10 9 9 9 9 8 8 7 6 5 4 3 2 2 2 1 0 0 0 0 0 0
4 4 2 2 1 4 4 3 7 9 10 10 12 13 14 13 13 12 10 9 9 9 9 9 9 8 8 7 7 6 5 5 4 3 2 1 1 0 1 1 2 2 3 4
Wind_Direction
228 234 244 251 256 268 282 292 297 299 293 277 275 242 182 176 177 176 170 171 178 177 163 159 161 165 157 157 155 150 150 149 145 148 158 155 146 148 144 145 142 154 150 130
236 236 246 258 266 273 281 291 298 305 294 273 276 261 187 171 177 176 175 170 174 172 161 156 165 166 157 156 156 149 151 154 156 159 159 158 145 159 153 137 141 152 140 148
237 244 241 251 263 270 279 288 299 295 283 273 284 267 185 164 171 178 180 170 174 171 164 163 166 162 157 158 159 158 157 159 160 157 156 146 138 154 143 138 149 160 154 160
243 251 253 251 258 269 278 292 294 291 288 289 286 274 186 170 175 185 186 174 174 170 165 166 166 162 160 162 161 150 154 157 156 161 161 160 171 170 155 152 152 158 165 163
244 247 249 252 258 269 281 294 293 295 294 298 301 275 193 173 184 185 182 174 168 165 166 166 166 163 163 163 160 155 154 158 162 171 170 176 176 167 149 144 140 160 166 171
254 254 250 252 257 260 273 286 294 302 325 315 281 271 186 182 194 180 170 166 164 163 162 162 161 160 161 160 158 157 158 161 166 170 168 180 180 158 143 147 155 179 168 175
249 252 252 253 255 255 260 274 293 307 333 268 277 282 184 171 169 164 160 161 164 164 162 163 164 165 165 163 161 160 161 162 166 167 166 172 167 148 147 162 170 194 171 162
241 240 239 241 251 254 251 251 256 279 281 265 252 253 170 151 126 143 150 153 160 163 163 165 164 165 168 165 161 159 161 164 167 163 161 161 162 172 172 190 177 190 181 150
247 243 238 231 238 247 253 256 273 280 278 283 206 343 44 124 125 141 148 155 162 164 164 166 166 167 169 169 164 162 162 165 167 163 159 166 179 197 169 167 194 168 147 141
250 258 242 235 232 234 248 265 278 282 296 303 310 98 154 275 169 158 160 162 164 166 166 169 171 173 171 169 164 162 164 169 169 165 173 177 185 183 169 173 182 158 146 131
239 252 251 232 225 244 250 250 262 280 283 295 297 254 195 218 210 172 167 165 167 169 170 170 172 173 170 171 169 168 166 170 173 175 185 173 176 180 180 183 172 162 157 151
232 244 249 244 231 235 245 253 254 256 269 278 290 100 162 154 192 172 164 160 164 169 170 171 172 171 172 175 174 172 174 178 180 179 180 177 179 180 183 185 176 168 170 169
234 234 244 242 236 240 259 262 265 261 261 267 277 251 144 265 116 160 159 157 160 167 170 171 171 172 174 176 175 175 180 182 183 182 183 183 183 184 190 185 176 173 174 182
252 235 243 247 227 185 265 278 273 262 256 256 270 260 201 239 171 169 154 154 164 166 168 170 168 169 173 175 174 176 182 182 182 182 185 185 186 187 189 188 182 182 183 190
257 237 241 249 210 204 216 246 266 267 265 265 255 247 213 208 174 152 149 155 156 161 168 169 168 169 172 174 175 178 182 181 182 181 185 185 185 187 188 189 189 188 192 199
264 255 246 250 231 215 226 235 240 245 253 256 245 205 182 176 135 127 121 137 158 169 168 168 166 166 171 175 178 181 183 181 180 182 187 184 184 189 192 190 191 193 196 203
256 258 252 252 253 254 246 244 241 242 256 261 268 173 154 135 119 111 109 123 182 169 159 165 169 167 173 175 179 185 183 179 178 184 187 183 186 191 194 196 193 195 197 202
275 274 257 252 255 252 258 268 268 258 259 287 106 115 111 118 118 110 110 118 99 92 109 102 157 167 171 174 178 180 181 178 180 183 189 187 189 192 192 197 194 192 196 199
230 243 247 244 242 253 271 307 313 303 344 46 99 89 92 105 113 99 92 94 85 62 76 82 77 125 156 170 175 171 174 175 183 185 189 189 188 190 189 193 195 190 193 200
210 214 234 242 242 250 286 320 324 323 247 53 77 83 93 105 102 82 79 77 70 57 64 75 78 63 62 61 114 144 154 150 155 165 171 179 169 172 179 182 185 187 190 209
209 211 229 241 246 241 13 309 288 237 161 73 77 83 83 74 84 92 85 86 82 70 64 66 67 62 54 49 66 88 86 90 102 102 104 111 137 150 166 163 168 183 199 214
279 246 236 242 235 233 7 30 43 75 78 70 70 86 92 94 96 88 79 75 74 74 73 73 71 64 57 58 66 71 64 61 73 82 79 73 72 89 145 134 146 166 226 235
349 354 338 348 50 50 43 69 100 106 92 90 95 94 102 102 97 93 85 74 66 65 65 68 71 67 59 55 59 64 55 54 65 73 81 82 89 84 64 113 166 194 220 236
311 351 66 66 46 34 27 60 60 80 90 94 96 101 100 99 96 91 86 80 72 65 63 64 67 65 59 54 56 56 51 52 60 64 67 70 73 80 70 93 153 210 223 233
339 6 37 83 61 67 45 43 69 84 84 83 84 91 95 95 93 92 86 81 77 72 67 67 68 68 63 56 53 52 50 54 61 64 69 74 65 26 47 105 253 213 134 142
22 20 15 65 38 80 88 64 81 84 82 82 82 81 85 90 93 91 86 81 80 78 76 72 69 67 66 61 53 41 35 38 42 43 34 32 94 311 260 228 236 229 217 199